Weather Roundup
Issued by NWS Chicago, IL

Home | Current Version | Previous Version | Graphics & Text | Print | Product List | Glossary On
Versions: 1 2 3 4 5 6 7 8 9 10 11 12 13 14 15 16 17 18 19 20 21 22 23 24 25 26 27 28 29 30 31 32 33 34 35 36 37 38 39 40 41 42 43 44 45 46 47 48 49 50
301
NZUS59 KLOT 200108
HRRLOT

CHICAGO AREA WEATHER ROUNDUP
NATIONAL WEATHER SERVICE CHICAGO/ROMEOVILLE IL
800 PM CDT TUE SEP 19 2017

NOTE: "FAIR" INDICATES FEW OR NO CLOUDS BELOW 12,000 FEET WITH NO
SIGNIFICANT WEATHER AND/OR OBSTRUCTIONS TO VISIBILITY.

* THESE STATIONS ARE NOT UNDER NWS QUALITY CONTROL. THEY ALSO MAY NOT
  REPORT WEATHER SUCH AS PRECIPITATION OR FOG.

ILZ005-006-012>014-019>023-200200-
NORTHEAST ILLINOIS

CITY           SKY/WX    TMP DP  RH WIND       PRES   REMARKS
OHARE          PTCLDY    69  63  81 NE7       29.92R
MIDWAY         PTCLDY    70  63  78 E6        29.92R
AURORA         CLEAR     69  63  81 E8        29.91R
LANSING*       CLEAR     67  65  94 NE5       29.92S
JOLIET*        CLEAR     71  65  83 E6        29.91R
WAUKEGAN       MOCLDY    66  65  96 NE6       29.92R
DUPAGE AIRPORT CLEAR     68  64  87 E7        29.91R
WHEELING       CLEAR     68  67  96 SE3       29.94R
MORRIS*        CLEAR     69  64  83 E7        29.90R
LEWIS AIRPORT* CLEAR     67  63  86 E7        29.92R
NORTHERLY ISL    N/A     67  63  87 NE5         N/A
$$

WIZ051-052-058>065-066-070>072-200200-
SOUTHEAST WISCONSIN

CITY           SKY/WX    TMP DP  RH WIND       PRES   REMARKS
MILWAUKEE      CLOUDY    66  64  93 E6        29.93S
KENOSHA*       MOCLDY    65  62  90 E7        29.93S
RACINE*        CLOUDY    66  65  96 E7        29.95R
WAUKESHA       CLOUDY    64  61  88 E9        29.94S
WEST BEND        N/A     61  61 100 CALM      29.95R FOG
$$

INZ001>003-010>013-019-020-200200-
NORTHWEST INDIANA

CITY           SKY/WX    TMP DP  RH WIND       PRES   REMARKS
GARY*          PTCLDY    68  64  88 E5        29.93R
MICHIGAN CITY* NOT AVBL
RENSSELAER*    NOT AVBL
VALPARAISO     CLEAR     67  64  90 N3        29.93R
$$

LMZ740>746-200200-
SOUTHERN LAKE MICHIGAN

STATION/POSITION TIME  SKY/WX   TEMP WIND        PRES    VSBY
                                AIR  DIR/SP/G
                 (UTC)          (F)  (DEG/KT/KT) (MB)    (MI)
HARRISON CRIB    0040            69   40/  4/  5   N/A
BURNHAM HARBOR   NOT AVBL
CALUMET HARBOR   0042            68   30/  4/  5 1012.8R
BURNS HARBOR     0040            68   70/  6/  8 1013.9R
MICHIGAN CITY    0040            67   50/  4/  5   N/A
$$

ABBREVIATIONS USED IN REMARKS
   TC - TEMPERATURE IN CELSIUS
  WCI - WIND CHILL INDEX
   HX - HEAT INDEX
  VSB - VISIBILITY
$$




USA.gov is the U.S. government's official web portal to all federal, state and local government web resources and services.